[[{"header":{"parameterUnit":"m.s-1","parameterCategory":1,"la1":30.2991,"la2":30.254,"lo1":-89.0895,"lo2":-89.0444,"dy":0.0017,"dx":0.0017,"nx":28,"ny":28,"refTime":"2025-11-13T03:00:00:Z","depth":0,"parameterNumber":2,"parameterNumberName":"U-component_of_WINDS"},"data":[0,0,0,0,0,0,0,0,0,0,0,0,0,0,0,0,0,0,0,0,0,0,0,0,0,0,0,0,0,0,0,0,0,0,0,0,0,0,0,0,0,0,0,0,0,0,0,0,0,0,0,0,0,0,0,0,0,0,0.0248,0.0248,0,0.0286,0.0286,0.0286,0.0307,0.0307,0.0307,0.0307,0.0348,0.0349,0.035,0,0,0,0,0,0,0,0,0,0,0,0,0,0.0194,0.0195,0.0248,0.0248,0.0249,0.0285,0.0286,0.0286,0.0307,0.0307,0.0307,0.0307,0.0347,0.0348,0.035,0,0,0,0,0,0,0,0,0,0,0,0,0,0.0223,0.0196,0.0248,0.0263,0.0265,0.0285,0.0286,0.0287,0.0307,0.0307,0.0307,0.0307,0.0347,0.0348,0.035,0.0358,0,0,0.0355,0.0355,0,0,0,0,0,0,0,0,0.0222,0.0225,0.0261,0.0262,0.0264,0.0291,0.0282,0.0311,0.0307,0.0291,0.0307,0.0307,0.0329,0.0332,0.0339,0.036,0.0362,0.0355,0.0356,0.0356,0.0357,0,0,0,0,0,0,0,0.022,0.0224,0.0263,0.0261,0.0263,0.0269,0.0273,0.0288,0.0309,0.0292,0.0294,0.0298,0.033,0.0337,0.034,0.0363,0.0355,0.0356,0.0357,0.0358,0.0391,0.0391,0,0,0,0,0,0,0.0215,0.0222,0.0262,0.0264,0.0243,0.0269,0.0274,0.0283,0.0309,0.0313,0.0298,0.0299,0.0335,0.0338,0.0342,0.0352,0.0356,0.0358,0.0359,0.0391,0.0391,0.0391,0,0,0,0,0,0,0.0214,0.0218,0.026,0.0243,0.0249,0.027,0.028,0.0283,0.0291,0.0313,0.0317,0.0301,0.0335,0.0339,0.0354,0.0354,0.0359,0.036,0.0391,0.0391,0.0391,0.0374,0,0,0,0,0,0,0.0212,0.0218,0.0221,0.0243,0.025,0.0271,0.028,0.0284,0.0293,0.0295,0.0318,0.0322,0.0335,0.0351,0.0355,0.0356,0.0361,0.0391,0.0391,0.0391,0.0375,0.0374,0.0373,0,0,0,0,0,0.021,0.0216,0.0221,0.0226,0.0254,0.0271,0.0275,0.029,0.0293,0.0297,0.0311,0.0321,0.0353,0.0352,0.0357,0.0359,0.0392,0.0391,0.0391,0.0376,0.0374,0.0373,0,0,0,0,0,0,0.0194,0.0219,0.0225,0.0238,0.0252,0.0275,0.028,0.0288,0.0302,0.0303,0.0322,0.0327,0.0339,0.0351,0.0349,0.0368,0.0373,0.0374,0.036,0.0359,0.0357,0.0354,0.0363,0,0,0,0,0,0.0192,0.0203,0.0224,0.0233,0.024,0.0258,0.0266,0.0276,0.0292,0.0298,0.0314,0.0329,0.0343,0.0351,0.0365,0.0377,0.0382,0.038,0.0379,0.0378,0.0378,0.0384,0.0383,0.0391,0.0391,0.0391,0,0,0.0188,0.0203,0.0209,0.0231,0.0243,0.0254,0.0263,0.0275,0.0283,0.0301,0.0314,0.0326,0.0344,0.0357,0.0363,0.0367,0.0377,0.0378,0.0377,0.0378,0.0384,0.0383,0.0383,0.0391,0.0391,0.0391,0,0,0.0186,0.0198,0.0207,0.0218,0.0236,0.0248,0.025,0.0271,0.0279,0.0292,0.0305,0.0315,0.0339,0.0351,0.036,0.036,0.037,0.0365,0.0359,0.0364,0.0363,0.0363,0.0362,0.0362,0.0365,0.0365,0.0365,0,0.0179,0.0196,0.021,0.0221,0.023,0.0244,0.0253,0.0263,0.0285,0.0291,0.0294,0.0322,0.0336,0.0351,0.0351,0.0358,0.036,0.0362,0.0362,0.0362,0.0362,0.0361,0.0361,0.0364,0.0364,0.0364,0.0364,0,0.0186,0.0197,0.0202,0.0221,0.023,0.024,0.0256,0.0264,0.0272,0.0284,0.0297,0.0314,0.033,0.0335,0.0344,0.0351,0.0352,0.0358,0.0365,0.036,0.036,0.036,0.0363,0.0363,0.0363,0.0364,0,0,0.0176,0.0202,0.0203,0.0211,0.0231,0.024,0.025,0.0265,0.0271,0.0285,0.0294,0.0312,0.0317,0.0328,0.0339,0.0343,0.0341,0.0349,0.035,0.0347,0.0348,0.0343,0.0343,0.0348,0.0348,0.0348,0.0347,0,0.0176,0.0194,0.0207,0.0219,0.0229,0.0243,0.0251,0.0264,0.0275,0.0285,0.0297,0.0309,0.0316,0.0322,0.0327,0.0341,0.0342,0.0341,0.0356,0.0356,0.035,0.0343,0.0338,0.0336,0.0347,0.0347,0.0347,0,0.018,0.0192,0.0205,0.0222,0.0227,0.0234,0.0248,0.0258,0.0273,0.028,0.0291,0.0301,0.0312,0.0317,0.0331,0.033,0.0337,0.0344,0.0344,0.0346,0.0351,0.0344,0.0336,0.0335,0.0347,0.0347,0.0347,0,0.017,0.019,0.02,0.0207,0.0228,0.0232,0.0241,0.0256,0.0263,0.0276,0.0281,0.0295,0.0303,0.0313,0.0327,0.0329,0.034,0.0346,0.0346,0.0346,0.0348,0.0348,0.034,0.0353,0.0353,0.0353,0.0353,0,0.017,0.0177,0.0196,0.0202,0.0211,0.0225,0.0233,0.0243,0.0256,0.0264,0.0277,0.0284,0.0302,0.0312,0.0323,0.0333,0.0336,0.0343,0.0345,0.0341,0.034,0.0346,0.0346,0.0353,0.0353,0.0353,0.0353,0,0.0161,0.0174,0.0186,0.0204,0.0208,0.0213,0.0229,0.0235,0.0246,0.0256,0.0259,0.0276,0.0288,0.0303,0.032,0.0327,0.0335,0.034,0.033,0.0332,0.033,0.033,0.0326,0.0326,0.0339,0.0339,0.0339,0,0.016,0.0165,0.0183,0.0189,0.0197,0.0207,0.0214,0.0229,0.0236,0.0252,0.0256,0.0269,0.0279,0.0298,0.0312,0.0324,0.0329,0.0327,0.0331,0.0326,0.0328,0.0327,0.0328,0.0326,0.0325,0.0325,0.0325,0,0.0156,0.0161,0.0171,0.0183,0.0191,0.0202,0.0212,0.0217,0.0233,0.024,0.0252,0.026,0.0276,0.0288,0.0302,0.0312,0.0321,0.0323,0.0324,0.032,0.0313,0.0316,0.0326,0.0323,0.0324,0.0324,0.0324,0.0324,0.015,0.0156,0.0168,0.0179,0.0188,0.0197,0.0203,0.0214,0.0224,0.0237,0.0245,0.0256,0.0269,0.0289,0.0298,0.0306,0.031,0.0311,0.0311,0.0311,0.0309,0.0312,0.0309,0.0309,0.0309,0.0309,0.0309,0,0.0146,0.0155,0.0164,0.0178,0.0186,0.0192,0.0204,0.021,0.022,0.0231,0.024,0.0253,0.0264,0.0278,0.029,0.0294,0.0299,0.0297,0.0297,0.0299,0.0306,0.0304,0.0293,0.0293,0.0293,0.0293,0.0293,0.0293,0.0145,0.0154,0.0161,0.0174,0.0182,0.0192,0.0198,0.0207,0.0215,0.0228,0.0237,0.0246,0.0258,0.0271,0.0281,0.0285,0.0288,0.0285,0.029,0.0297,0.0298,0.03,0.0298,0.0286,0.0286,0.0282,0.0282,0.0282]},{"header":{"parameterUnit":"m.s-1","parameterCategory":1,"la1":30.2991,"la2":30.254,"lo1":-89.0895,"lo2":-89.0444,"dy":0.0017,"dx":0.0017,"nx":28,"ny":28,"refTime":"2025-11-13T03:00:00:Z","depth":0,"parameterNumber":3,"parameterNumberName":"V-component_of_WINDS"},"data":[0,0,0,0,0,0,0,0,0,0,0,0,0,0,0,0,0,0,0,0,0,0,0,0,0,0,0,0,0,0,0,0,0,0,0,0,0,0,0,0,0,0,0,0,0,0,0,0,0,0,0,0,0,0,0,0,0,0,1.4647,1.4646,0,1.4589,1.4588,1.4588,1.455,1.455,1.455,1.455,1.4488,1.4486,1.4485,0,0,0,0,0,0,0,0,0,0,0,0,0,1.4722,1.4721,1.4647,1.4646,1.4645,1.4589,1.4588,1.4588,1.455,1.455,1.455,1.455,1.4488,1.4486,1.4485,0,0,0,0,0,0,0,0,0,0,0,0,0,1.4679,1.4721,1.4647,1.462,1.4617,1.4589,1.4588,1.4587,1.455,1.455,1.455,1.455,1.4489,1.4487,1.4484,1.4478,0,0,1.4478,1.4477,0,0,0,0,0,0,0,0,1.4682,1.4677,1.4625,1.4622,1.4619,1.4577,1.4592,1.455,1.4551,1.4576,1.455,1.4549,1.4517,1.4513,1.4503,1.4475,1.4472,1.4478,1.4476,1.4475,1.4475,0,0,0,0,0,0,0,1.4685,1.4679,1.4624,1.4624,1.462,1.461,1.4604,1.4584,1.4549,1.4574,1.4571,1.4565,1.4516,1.4505,1.4501,1.4471,1.4478,1.4476,1.4474,1.4474,1.4434,1.4435,0,0,0,0,0,0,1.4693,1.4682,1.4626,1.4622,1.465,1.4609,1.4602,1.459,1.4549,1.4543,1.4565,1.4563,1.4509,1.4503,1.4499,1.4487,1.4475,1.4473,1.4472,1.4434,1.4434,1.4435,0,0,0,0,0,0,1.4694,1.4688,1.4628,1.4651,1.4643,1.4608,1.4596,1.4589,1.4579,1.4543,1.4536,1.4561,1.4508,1.4502,1.4483,1.4485,1.4472,1.447,1.4434,1.4434,1.4435,1.4466,0,0,0,0,0,0,1.4697,1.4689,1.4687,1.4651,1.4642,1.4615,1.4596,1.4589,1.4575,1.4572,1.4537,1.453,1.4507,1.4487,1.4481,1.4482,1.4469,1.4433,1.4434,1.4434,1.4464,1.4467,1.447,0,0,0,0,0,1.4699,1.4697,1.4687,1.468,1.4638,1.4615,1.4609,1.4584,1.4576,1.4573,1.4549,1.4532,1.4486,1.4485,1.4479,1.4478,1.4433,1.4434,1.4434,1.4463,1.4467,1.4469,0,0,0,0,0,0,1.4732,1.4692,1.468,1.4666,1.4645,1.4609,1.4604,1.4588,1.4567,1.4565,1.4533,1.4525,1.451,1.4492,1.4492,1.4469,1.4457,1.4457,1.4482,1.4484,1.4487,1.4491,1.4467,0,0,0,0,0,1.4738,1.4724,1.4689,1.468,1.467,1.4639,1.4628,1.461,1.4586,1.4576,1.4551,1.4527,1.4508,1.4495,1.4475,1.4462,1.4453,1.4458,1.4461,1.4463,1.4463,1.4454,1.4456,1.4437,1.4437,1.4437,0,0,1.475,1.4726,1.4718,1.4686,1.4667,1.4651,1.4631,1.4616,1.4604,1.4573,1.4554,1.4536,1.4507,1.4491,1.4483,1.4476,1.4466,1.4464,1.4466,1.4464,1.4455,1.4457,1.4458,1.4437,1.4437,1.4437,0,0,1.4763,1.4744,1.4734,1.4716,1.4687,1.4667,1.4665,1.4632,1.4618,1.4599,1.4576,1.456,1.4527,1.4507,1.4493,1.4499,1.4481,1.4493,1.4506,1.4498,1.45,1.4501,1.4502,1.4503,1.4493,1.4493,1.4493,0,1.478,1.4757,1.4731,1.4717,1.4703,1.4676,1.4665,1.4648,1.4615,1.4605,1.4598,1.4556,1.4534,1.4513,1.4515,1.4504,1.45,1.4497,1.4502,1.4503,1.4503,1.4504,1.4505,1.4495,1.4494,1.4494,1.4494,0,1.478,1.4764,1.476,1.4729,1.4714,1.4702,1.4673,1.4662,1.4645,1.4626,1.4606,1.458,1.4553,1.4547,1.4531,1.4524,1.452,1.4508,1.4495,1.4507,1.4507,1.4508,1.4497,1.4496,1.4496,1.4495,0,0,1.4811,1.4767,1.4765,1.4751,1.4718,1.4705,1.4691,1.4666,1.4657,1.4634,1.4621,1.4594,1.4582,1.4566,1.4547,1.454,1.4545,1.4528,1.4527,1.4532,1.4535,1.4545,1.4545,1.4534,1.4534,1.4534,1.4538,0,1.4819,1.4794,1.477,1.4753,1.4738,1.4712,1.47,1.4678,1.4659,1.4642,1.4621,1.4602,1.4588,1.4578,1.457,1.4547,1.4546,1.4546,1.4521,1.452,1.4528,1.4546,1.4555,1.456,1.4538,1.4538,1.4538,0,1.4824,1.4804,1.4786,1.4755,1.4747,1.4737,1.4712,1.4697,1.4671,1.4658,1.464,1.462,1.4603,1.4593,1.4569,1.457,1.4558,1.4545,1.4544,1.454,1.4529,1.4542,1.4561,1.4561,1.4538,1.4538,1.4538,0,1.4848,1.4817,1.4802,1.479,1.4753,1.4746,1.473,1.4704,1.4691,1.4669,1.466,1.4636,1.4623,1.4604,1.4578,1.4573,1.4557,1.4544,1.4544,1.4545,1.4541,1.4542,1.4558,1.4535,1.4535,1.4535,1.4535,0,1.4859,1.4849,1.4812,1.4803,1.479,1.4763,1.4751,1.4733,1.471,1.4695,1.4671,1.4658,1.4625,1.4608,1.4587,1.457,1.4564,1.4552,1.4547,1.4554,1.4555,1.4545,1.4544,1.4535,1.4535,1.4535,1.4535,0,1.4884,1.4859,1.4841,1.4807,1.4799,1.4791,1.4762,1.4751,1.4731,1.4714,1.4708,1.4676,1.4654,1.4627,1.4596,1.4582,1.4567,1.4559,1.4576,1.4573,1.4574,1.4574,1.4584,1.4584,1.4562,1.4562,1.4562,0,1.4892,1.4883,1.4849,1.4839,1.4824,1.4807,1.4794,1.4766,1.4753,1.4723,1.4716,1.4692,1.4672,1.4639,1.4612,1.4589,1.4579,1.4585,1.4576,1.4583,1.4579,1.4579,1.4578,1.4587,1.4587,1.4587,1.4588,0,1.4908,1.4897,1.4879,1.4857,1.4841,1.4822,1.4802,1.4794,1.4762,1.4748,1.4727,1.4711,1.468,1.4657,1.463,1.4613,1.4594,1.4591,1.4589,1.4596,1.4607,1.46,1.4582,1.4591,1.459,1.459,1.459,1.459,1.4924,1.4916,1.4891,1.4871,1.4853,1.4835,1.4823,1.4802,1.4784,1.4758,1.4742,1.4721,1.4694,1.4657,1.464,1.4622,1.4615,1.4613,1.4612,1.4612,1.4614,1.461,1.4617,1.4617,1.4617,1.4616,1.4616,0,1.4939,1.4922,1.4905,1.4877,1.4862,1.4848,1.4824,1.4812,1.4794,1.4772,1.4753,1.4727,1.4705,1.4677,1.4652,1.4644,1.4634,1.4638,1.4638,1.4634,1.4622,1.4626,1.4646,1.4646,1.4646,1.4646,1.4646,1.4646,1.4945,1.493,1.4915,1.489,1.4872,1.4852,1.484,1.4822,1.4804,1.4778,1.4759,1.4742,1.4717,1.469,1.4669,1.4661,1.4652,1.4658,1.4648,1.4637,1.4635,1.4632,1.4635,1.4657,1.4657,1.4661,1.4661,1.4661]}]]